Weather in Kilindoni

Tanzania     7°55′01″S   39°40′01″E
В апреле 2022 года жителям России запретили посещать сайт meteo.paraplan.net по решению Генеральной прокуратуры. Аудитория сайта уменьшилась в 10 раз. Владельцы сайта не видят смысла в поддержке погодного сервера в таких условиях. Сайт будет закрыт в октябре.
temp.,
°C
wind,
m/s
gust,
m/s
humid.,
%
clouds,
%
prec.,
mm/h
press.,
hPa
HPBL,
m
30 september, fri
fri3000:00+25ese7876100 0.0 1015880
03:00+25ese6774100 0.0 1014938
06:00+24ese56768 0.0 1015811
09:00+25e55726 0.1 1017899
12:00+25e547214 0.2 1016667
15:00+25ese55692 0.3 1014686
18:00+25ese56713 0.0 1014671
21:00+25e677688 0.0 1016701
1 october, sat
sat100:00+24e6776100 0.0 1016768
03:00+24e5675100 0.0 1015833
06:00+24ese56758 0.1 1016758
09:00+25e44737 0.1 1018818
12:00+25ese557721 0.4 1017618
15:00+25ese55722 0.6 1015771
18:00+25e56750 0.0 1014704
21:00+24e67777 0.0 1016829
2 october, sun
sun200:00+24e67756 0.1 1016848
03:00+24e457526 0.1 1015752
06:00+24e33745 0.0 1016692
09:00+25ese34691 0.0 1018875
12:00+25se447117 0.1 1018765
15:00+25se44720 0.3 1015635
18:00+25se67755 0.0 1015855
21:00+25ese79695 0.0 1016702
3 october, mon
mon300:00+24ese797380 0.0 1015744
03:00+24e687598 0.0 1013801
06:00+24ese567399 0.0 1014845
09:00+25ese556895 0.0 10171042
12:00+25ese556797 0.0 1016922
15:00+25ese54689 0.0 1013763
18:00+25ese5672100 0.0 1013699
21:00+25ese6773100 0.0 1014554
4 october, tue
tue400:00+24e687645 0.0 1013595
03:00+24e787695 0.0 1012681
06:00+24e56755 0.0 1014691
09:00+25ese457423 0.0 1016866
12:00+26se44735 0.1 1015703
15:00+25se55756 0.1 1012681
18:00+25ese67785 0.0 1013668
21:00+25ese78795 0.0 1014648